Weather History for Brindisi, Italy

Change the Weather History Date:

Sunday, March 2, 2014

  Actual Average Record
Temperature  
Mean Temperature 50 °F -  
Max Temperature 59 °F 59 °F 73 °F (2002)
Min Temperature 42 °F 46 °F 35 °F (2005)
Degree Days  
Heating Degree Days 14    
Moisture  
Dew Point 45 °F    
Average Humidity 82    
Maximum Humidity 94    
Minimum Humidity 53    
Precipitation  
Precipitation 0.00 in 0.09 in - ()
Sea Level Pressure  
Sea Level Pressure 29.49 in    
Wind  
Wind Speed 7 mph ()    
Max Wind Speed 16 mph    
Max Gust Speed -    
Visibility 6.0 miles    
Events      
Averages and records for this station are not official NWS values.
T = Trace of Precipitation, MM = Missing Value Source: Averaged Metar Reports

Daily Weather History Graph

Daily Weather History Graph

Search for Another Location

Airport:

Trip Planner

Search our weather history database for the weather conditions in past years. The results will help you decide how hot, cold, wet, or windy it might be!

Date:

Astronomy

Mar. 02, 2014 Rise Set
Actual Time 6:20 AM CET 5:40 PM CET
Civil Twilight 5:53 AM CET 6:07 PM CET
Nautical Twilight 5:21 AM CET 6:39 PM CET
Astronomical Twilight 4:50 AM CET 7:11 PM CET
Moon 6:40 AM CET (3/2) 7:16 PM CET (3/2)
Length of Visible Light 12h 14m
Length of Day
11h 19m
New Moon, 2% of the Moon is Illuminated
Mar 2
New Moon
Mar 8
First Quarter
Mar 16
Full
Mar 24
Last Quarter
Mar 30
New

Hourly Weather History & Observations

Time (CET) Temp. Windchill Dew Point Humidity Pressure Visibility Wind Dir Wind Speed Gust Speed Precip Events Conditions
12:15 AM 48.2 °F - 46.4 °F 93% 29.50 in 5.0 mi South 8.1 mph - N/A   Scattered Clouds
12:45 AM 48.2 °F - 44.6 °F 87% 29.50 in 5.0 mi South 3.5 mph - N/A   Scattered Clouds
1:00 AM 49 °F - 45 °F 82% 29.52 in 5 mi South 3.5 mph - -   Mist
1:15 AM 48.2 °F - 44.6 °F 87% 29.50 in 5.0 mi SSE 6.9 mph - N/A   Scattered Clouds
1:45 AM 48.2 °F - 44.6 °F 87% 29.50 in 5.0 mi SSE 3.5 mph - N/A   Scattered Clouds
2:15 AM 48.2 °F - 44.6 °F 87% 29.50 in 5.0 mi South 5.8 mph - N/A   Scattered Clouds
2:45 AM 48.2 °F - 44.6 °F 87% 29.47 in 5.0 mi SW 4.6 mph - N/A   Scattered Clouds
3:15 AM 48.2 °F - 44.6 °F 87% 29.47 in 5.0 mi SW 5.8 mph - N/A   Scattered Clouds
3:45 AM 46.4 °F 43.5 °F 42.8 °F 87% 29.47 in 6.2 mi SSW 5.8 mph - N/A   Scattered Clouds
4:00 AM 47 °F - 43 °F 82% 29.48 in 6 mi SSW 5.8 mph - -   Partly Cloudy
4:15 AM 46.4 °F 44.3 °F 42.8 °F 87% 29.47 in 6.2 mi SSW 4.6 mph - N/A   Scattered Clouds
4:45 AM 46.4 °F 42.4 °F 42.8 °F 87% 29.47 in 6.2 mi WSW 8.1 mph - N/A   Scattered Clouds
5:15 AM 46.4 °F 41.9 °F 42.8 °F 87% 29.47 in 6.2 mi WSW 9.2 mph - N/A   Scattered Clouds
5:45 AM 42.8 °F 38.0 °F 41.0 °F 93% 29.47 in 6.2 mi WSW 8.1 mph - N/A   Scattered Clouds
6:15 AM 42.8 °F 37.5 °F 41.0 °F 93% 29.47 in 6.2 mi WSW 9.2 mph - N/A   Scattered Clouds
6:45 AM 42.8 °F 39.3 °F 39.2 °F 87% 29.47 in 6.2 mi SW 5.8 mph - N/A   Scattered Clouds
7:00 AM 43 °F - 39 °F 81% 29.48 in 6 mi SW 5.8 mph - -   Partly Cloudy
7:15 AM 42.8 °F 38.6 °F 39.2 °F 87% 29.47 in 6.2 mi SW 6.9 mph - N/A   Scattered Clouds
7:45 AM 42.8 °F 38.0 °F 39.2 °F 87% 29.47 in 6.2 mi SW 8.1 mph - N/A   Scattered Clouds
8:15 AM 46.4 °F - 42.8 °F 87% 29.47 in 6.2 mi SW 2.3 mph - N/A   Partly Cloudy
8:45 AM 46.4 °F 45.2 °F 42.8 °F 87% 29.47 in 6.2 mi WSW 3.5 mph - N/A   Partly Cloudy
9:15 AM 46.4 °F 43.5 °F 42.8 °F 87% 29.47 in 6.2 mi SSW 5.8 mph - N/A   Partly Cloudy
9:45 AM 51.8 °F - 48.2 °F 88% 29.47 in 6.2 mi WSW 3.5 mph - N/A   Partly Cloudy
10:00 AM 52 °F - 47 °F 79% 29.49 in 6 mi WSW 3.5 mph - -   Scattered Clouds
10:15 AM 51.8 °F - 48.2 °F 88% 29.47 in 6.2 mi SW 8.1 mph - N/A   Partly Cloudy
10:45 AM 55.4 °F - 50.0 °F 82% 29.47 in 6.2 mi SSW 10.4 mph - N/A   Partly Cloudy
11:15 AM 55.4 °F - 50.0 °F 82% 29.47 in 6.2 mi SSW 10.4 mph - N/A   Partly Cloudy
11:45 AM 57.2 °F - 48.2 °F 72% 29.47 in 6.2 mi SSW 11.5 mph - N/A   Scattered Clouds
12:15 PM 57.2 °F - 48.2 °F 72% 29.47 in 6.2 mi SSW 12.7 mph - N/A   Scattered Clouds
12:45 PM 59.0 °F - 50.0 °F 72% 29.47 in 6.2 mi SSW 16.1 mph - N/A   Scattered Clouds
1:00 PM 59 °F - 50 °F 63% 29.50 in 6 mi SSW 16.1 mph - -   Partly Cloudy
1:15 PM 59.0 °F - 50.0 °F 72% 29.47 in 6.2 mi SSW 16.1 mph - N/A   Scattered Clouds
1:45 PM 59.0 °F - 50.0 °F 72% 29.47 in 6.2 mi South 16.1 mph - N/A   Scattered Clouds
2:15 PM 59.0 °F - 46.4 °F 63% 29.47 in 6.2 mi SSW 13.8 mph - N/A   Partly Cloudy
2:45 PM 59.0 °F - 44.6 °F 59% 29.47 in 6.2 mi SSW 15.0 mph - N/A   Partly Cloudy
3:15 PM 59.0 °F - 44.6 °F 59% 29.47 in 6.2 mi SSW 15.0 mph - N/A   Partly Cloudy
3:45 PM 59.0 °F - 46.4 °F 63% 29.47 in 6.2 mi SSW 11.5 mph - N/A   Partly Cloudy
4:00 PM 59 °F - 46 °F 53% 29.50 in 6 mi SSW 11.5 mph - -   Scattered Clouds
4:15 PM 59.0 °F - 46.4 °F 63% 29.47 in 6.2 mi SSW 11.5 mph - N/A   Partly Cloudy
4:45 PM 59.0 °F - 46.4 °F 63% 29.50 in 6.2 mi SSW 11.5 mph - N/A   Scattered Clouds
5:15 PM 59.0 °F - 46.4 °F 63% 29.50 in 6.2 mi SSW 9.2 mph - N/A   Scattered Clouds
5:45 PM 53.6 °F - 48.2 °F 82% 29.50 in 6.2 mi South 9.2 mph - N/A   Partly Cloudy
6:15 PM 51.8 °F - 48.2 °F 88% 29.50 in 6.2 mi SSE 9.2 mph - N/A   Partly Cloudy
6:45 PM 51.8 °F - 48.2 °F 88% 29.53 in 6.2 mi SSW 8.1 mph - N/A   Partly Cloudy
7:00 PM 51 °F - 47 °F 83% 29.54 in 6 mi SSW 8.1 mph - -   Scattered Clouds
7:15 PM 51.8 °F - 48.2 °F 88% 29.53 in 6.2 mi SSW 8.1 mph - N/A   Partly Cloudy
7:45 PM 50.0 °F - 48.2 °F 94% 29.53 in 6.2 mi SSE 6.9 mph - N/A   Partly Cloudy
8:15 PM 50.0 °F - 48.2 °F 94% 29.53 in 6.2 mi SSE 5.8 mph - N/A   Partly Cloudy
8:45 PM 50.0 °F - 48.2 °F 94% 29.53 in 6.2 mi SSE 5.8 mph - N/A   Partly Cloudy
9:15 PM 48.2 °F - 44.6 °F 87% 29.53 in 6.2 mi SE 6.9 mph - N/A   Partly Cloudy
9:45 PM 46.4 °F 44.3 °F 44.6 °F 93% 29.53 in - SSE 4.6 mph - N/A   Clear
10:00 PM 47 °F - 45 °F 88% 29.55 in 6 mi SSE 4.6 mph - -  
10:15 PM 46.4 °F - 44.6 °F 93% 29.53 in - South 2.3 mph - N/A   Clear
10:45 PM 46.4 °F - 44.6 °F 93% 29.53 in - South 2.3 mph - N/A   Clear
11:15 PM 44.6 °F 42.2 °F 42.8 °F 93% 29.53 in - SSE 4.6 mph - N/A   Clear
11:45 PM 44.6 °F 42.2 °F 42.8 °F 93% 29.53 in - SSE 4.6 mph - N/A   Clear